[[{"header":{"parameterUnit":"m.s-1","parameterCategory":1,"la1":30.2991,"la2":30.254,"lo1":-89.0895,"lo2":-89.0444,"dy":0.0017,"dx":0.0017,"nx":28,"ny":28,"refTime":"2024-04-30T21:00:00:Z","depth":0,"parameterNumber":2,"parameterNumberName":"U-component_of_WINDS"},"data":[0,0,0,0,0,0,0,0,0,0,0,0,0,0,0,0,0,0,0,0,0,0,0,0,0,0,0,0,0,0,0,0,0,0,0,0,0,0,0,0,0,0,0,0,0,0,0,0,0,0,0,0,0,0,0,0,0,0,0.2682,0.2682,0,0.2684,0.2684,0.2684,0.2705,0.2706,0.2706,0.2707,0.271,0.2709,0.2709,0,0,0,0,0,0,0,0,0,0,0,0,0,0.2699,0.2699,0.2682,0.2683,0.2683,0.2684,0.2684,0.2684,0.2705,0.2706,0.2706,0.2707,0.271,0.2709,0.2709,0,0,0,0,0,0,0,0,0,0,0,0,0,0.2695,0.2698,0.2682,0.2693,0.2694,0.2684,0.2684,0.2684,0.2705,0.2706,0.2706,0.2707,0.271,0.2709,0.2709,0.2689,0,0,0.2707,0.2706,0,0,0,0,0,0,0,0,0.2696,0.2695,0.2691,0.2692,0.2693,0.2695,0.2691,0.2686,0.2705,0.2701,0.2707,0.2708,0.2704,0.2704,0.2703,0.2689,0.269,0.2707,0.2706,0.2706,0.2706,0,0,0,0,0,0,0,0.2696,0.2695,0.2683,0.2691,0.2693,0.2698,0.2699,0.269,0.2698,0.2701,0.2703,0.2703,0.2705,0.2703,0.2703,0.269,0.2707,0.2706,0.2706,0.2706,0.2663,0.2662,0,0,0,0,0,0,0.2694,0.2695,0.2683,0.2683,0.2696,0.2697,0.2698,0.2694,0.2698,0.27,0.2702,0.2703,0.2704,0.2704,0.2703,0.2682,0.2706,0.2706,0.2705,0.2663,0.2662,0.2661,0,0,0,0,0,0,0.2695,0.2693,0.2683,0.269,0.2689,0.2696,0.2692,0.2693,0.2692,0.2699,0.27,0.2699,0.2705,0.2704,0.2693,0.2682,0.2705,0.2705,0.2664,0.2663,0.2662,0.2639,0,0,0,0,0,0,0.2695,0.2693,0.2685,0.2689,0.2688,0.2672,0.2691,0.2693,0.2691,0.2693,0.2696,0.2698,0.2705,0.2694,0.2692,0.2682,0.2704,0.2665,0.2664,0.2662,0.264,0.2637,0.2634,0,0,0,0,0,0.2695,0.2678,0.2685,0.2683,0.2678,0.2671,0.2671,0.268,0.269,0.2682,0.2687,0.2697,0.2684,0.2692,0.2691,0.268,0.2666,0.2664,0.2662,0.2642,0.2637,0.2634,0,0,0,0,0,0,0.2673,0.2679,0.2686,0.267,0.267,0.2675,0.2666,0.2675,0.2672,0.2674,0.2686,0.2686,0.2674,0.2676,0.2685,0.2663,0.2677,0.2675,0.2662,0.2657,0.2654,0.2654,0.2704,0,0,0,0,0,0.2666,0.2659,0.2665,0.265,0.265,0.2658,0.2655,0.2662,0.2663,0.2663,0.2667,0.2668,0.2664,0.2661,0.2657,0.2641,0.2643,0.2633,0.263,0.2627,0.2625,0.2618,0.2614,0.2656,0.2656,0.2656,0,0,0.2651,0.2654,0.2649,0.2646,0.2647,0.264,0.2658,0.265,0.2645,0.2662,0.2652,0.2655,0.2657,0.2643,0.2637,0.2644,0.2614,0.2625,0.2622,0.2622,0.2616,0.2612,0.2608,0.2655,0.2655,0.2655,0,0,0.2622,0.2623,0.2611,0.2612,0.2613,0.2619,0.2616,0.262,0.2623,0.2613,0.2626,0.2621,0.2613,0.2615,0.2614,0.2587,0.2597,0.2586,0.2568,0.2561,0.2558,0.2555,0.2546,0.2543,0.2584,0.2584,0.2584,0,0.2604,0.2594,0.2604,0.2595,0.2594,0.2609,0.2598,0.2598,0.2599,0.2598,0.2606,0.2598,0.26,0.2588,0.2581,0.258,0.2578,0.2585,0.2558,0.2555,0.2552,0.2544,0.2541,0.2582,0.2583,0.2583,0.2583,0,0.2572,0.2566,0.2556,0.2556,0.2554,0.2544,0.2553,0.255,0.2557,0.2562,0.2553,0.2556,0.2554,0.2552,0.2559,0.2541,0.2546,0.2555,0.257,0.2547,0.2539,0.2536,0.2581,0.2581,0.2581,0.2582,0,0,0.2527,0.2534,0.2531,0.2532,0.2535,0.253,0.2522,0.252,0.2517,0.2518,0.2511,0.2506,0.2515,0.2515,0.2522,0.2516,0.2496,0.2527,0.2527,0.2522,0.2477,0.247,0.2466,0.2502,0.2502,0.2501,0.2478,0,0.25,0.2485,0.2494,0.2479,0.2473,0.2488,0.2481,0.2483,0.2488,0.2485,0.2491,0.2486,0.2499,0.2499,0.2493,0.2499,0.2487,0.2501,0.2498,0.2497,0.2497,0.2462,0.2454,0.2432,0.2475,0.2474,0.2474,0,0.2465,0.2464,0.2448,0.2454,0.2452,0.2445,0.2445,0.2441,0.2445,0.2449,0.2449,0.2459,0.2452,0.2466,0.2458,0.2467,0.2466,0.2469,0.2468,0.2469,0.2484,0.2462,0.2424,0.2421,0.2469,0.2469,0.247,0,0.2435,0.243,0.242,0.242,0.2426,0.2421,0.2424,0.2428,0.2427,0.2427,0.2426,0.2426,0.2426,0.2425,0.2435,0.2444,0.2426,0.244,0.243,0.243,0.2425,0.2425,0.2387,0.2424,0.2424,0.2424,0.2424,0,0.2403,0.2393,0.2406,0.24,0.239,0.2401,0.239,0.2395,0.2398,0.2394,0.2407,0.2403,0.2416,0.2413,0.2421,0.2413,0.2413,0.2417,0.2419,0.2416,0.2415,0.2415,0.2417,0.2423,0.2423,0.2423,0.2424,0,0.2367,0.2376,0.2366,0.2374,0.2375,0.2367,0.2374,0.2369,0.2375,0.237,0.2369,0.2379,0.2377,0.2387,0.2386,0.2392,0.238,0.2385,0.2379,0.2381,0.237,0.2371,0.2331,0.2327,0.2365,0.2365,0.2365,0,0.2346,0.2339,0.2346,0.2344,0.2346,0.2342,0.2342,0.2353,0.2352,0.2356,0.2351,0.2349,0.2349,0.2345,0.2353,0.2353,0.2358,0.2344,0.2358,0.2356,0.2359,0.2359,0.2359,0.2341,0.2341,0.234,0.234,0,0.2309,0.2314,0.2312,0.2312,0.2311,0.2311,0.2313,0.2311,0.2323,0.2321,0.2319,0.2319,0.2319,0.2318,0.232,0.2324,0.2334,0.2336,0.2333,0.233,0.2327,0.2329,0.2372,0.2336,0.2337,0.2337,0.2337,0.2337,0.2281,0.2275,0.228,0.2278,0.228,0.2281,0.2278,0.2284,0.2282,0.2283,0.229,0.2287,0.2292,0.2296,0.2298,0.2297,0.2303,0.23,0.2299,0.2298,0.2296,0.2327,0.2297,0.2297,0.2297,0.2297,0.2297,0,0.2244,0.2248,0.2246,0.2248,0.2247,0.2257,0.226,0.2258,0.2255,0.2259,0.2258,0.2257,0.2257,0.2265,0.2265,0.2263,0.2268,0.2263,0.2263,0.2264,0.229,0.2292,0.2259,0.2259,0.2259,0.2259,0.2259,0.2259,0.2225,0.2217,0.2223,0.2217,0.2221,0.2218,0.2219,0.2221,0.2224,0.2221,0.2221,0.2226,0.2232,0.2234,0.2234,0.2237,0.2237,0.223,0.2234,0.2258,0.2262,0.2266,0.2268,0.223,0.223,0.2209,0.2209,0.2209]},{"header":{"parameterUnit":"m.s-1","parameterCategory":1,"la1":30.2991,"la2":30.254,"lo1":-89.0895,"lo2":-89.0444,"dy":0.0017,"dx":0.0017,"nx":28,"ny":28,"refTime":"2024-04-30T21:00:00:Z","depth":0,"parameterNumber":3,"parameterNumberName":"V-component_of_WINDS"},"data":[0,0,0,0,0,0,0,0,0,0,0,0,0,0,0,0,0,0,0,0,0,0,0,0,0,0,0,0,0,0,0,0,0,0,0,0,0,0,0,0,0,0,0,0,0,0,0,0,0,0,0,0,0,0,0,0,0,0,-0.6071,-0.6071,0,-0.604,-0.604,-0.6039,-0.6043,-0.6043,-0.6044,-0.6044,-0.6009,-0.6008,-0.6007,0,0,0,0,0,0,0,0,0,0,0,0,0,-0.6134,-0.6133,-0.6071,-0.6071,-0.6071,-0.604,-0.604,-0.6039,-0.6043,-0.6043,-0.6044,-0.6044,-0.601,-0.6008,-0.6007,0,0,0,0,0,0,0,0,0,0,0,0,0,-0.6105,-0.6133,-0.6071,-0.6069,-0.6068,-0.604,-0.604,-0.6039,-0.6043,-0.6043,-0.6044,-0.6045,-0.601,-0.6008,-0.6006,-0.5978,0,0,-0.6,-0.5999,0,0,0,0,0,0,0,0,-0.6107,-0.6103,-0.6069,-0.6069,-0.6068,-0.6046,-0.6049,-0.6019,-0.6042,-0.6052,-0.6044,-0.6045,-0.6021,-0.6018,-0.601,-0.5977,-0.5975,-0.6,-0.5998,-0.5998,-0.5997,0,0,0,0,0,0,0,-0.6109,-0.6105,-0.6059,-0.6069,-0.6068,-0.6069,-0.6066,-0.6044,-0.6033,-0.6051,-0.6052,-0.6048,-0.6021,-0.6012,-0.601,-0.5975,-0.6,-0.5998,-0.5997,-0.5996,-0.5922,-0.5921,0,0,0,0,0,0,-0.6112,-0.6106,-0.606,-0.6058,-0.609,-0.6067,-0.6064,-0.6052,-0.6033,-0.6031,-0.6047,-0.6048,-0.6016,-0.6012,-0.6008,-0.5977,-0.5998,-0.5996,-0.5994,-0.5922,-0.5921,-0.5921,0,0,0,0,0,0,-0.6113,-0.6108,-0.6061,-0.6082,-0.6076,-0.6066,-0.6053,-0.6051,-0.6043,-0.603,-0.6028,-0.6041,-0.6016,-0.6011,-0.5987,-0.5976,-0.5995,-0.5993,-0.5923,-0.5922,-0.5921,-0.5913,0,0,0,0,0,0,-0.6115,-0.6108,-0.6097,-0.6082,-0.6075,-0.604,-0.6052,-0.605,-0.604,-0.6041,-0.6023,-0.6021,-0.6016,-0.599,-0.5985,-0.5974,-0.5991,-0.5924,-0.5923,-0.5921,-0.5915,-0.5912,-0.591,0,0,0,0,0,-0.6117,-0.6094,-0.6096,-0.6091,-0.6061,-0.6039,-0.6036,-0.6031,-0.6039,-0.6028,-0.6021,-0.6022,-0.5978,-0.5988,-0.5982,-0.597,-0.5925,-0.5923,-0.5921,-0.5916,-0.5913,-0.591,0,0,0,0,0,0,-0.6106,-0.6092,-0.6094,-0.6066,-0.6054,-0.604,-0.6026,-0.6028,-0.6013,-0.6014,-0.6009,-0.6005,-0.5981,-0.5973,-0.5983,-0.5944,-0.5953,-0.595,-0.595,-0.5947,-0.5945,-0.5948,-0.5989,0,0,0,0,0,-0.6101,-0.6085,-0.6073,-0.605,-0.6044,-0.6036,-0.6026,-0.6025,-0.6012,-0.6006,-0.5997,-0.5984,-0.5968,-0.5957,-0.5941,-0.5914,-0.5911,-0.5903,-0.5901,-0.5899,-0.5896,-0.5885,-0.5882,-0.5915,-0.5915,-0.5915,0,0,-0.6089,-0.6079,-0.6069,-0.6047,-0.6038,-0.6022,-0.6032,-0.6013,-0.6002,-0.6003,-0.5981,-0.5974,-0.5959,-0.5935,-0.5923,-0.5927,-0.5887,-0.5897,-0.5895,-0.5894,-0.5883,-0.588,-0.5877,-0.5914,-0.5914,-0.5915,0,0,-0.606,-0.605,-0.6031,-0.6022,-0.6009,-0.6005,-0.6001,-0.5987,-0.5983,-0.5961,-0.5963,-0.5949,-0.5921,-0.5912,-0.5903,-0.5876,-0.5877,-0.5871,-0.5859,-0.5848,-0.5845,-0.5843,-0.5835,-0.5832,-0.5868,-0.5868,-0.5868,0,-0.6046,-0.6023,-0.602,-0.6004,-0.5995,-0.5998,-0.598,-0.5971,-0.5953,-0.5947,-0.5953,-0.592,-0.591,-0.5885,-0.5879,-0.5871,-0.5867,-0.5872,-0.5846,-0.5844,-0.5841,-0.5834,-0.5831,-0.5868,-0.5868,-0.5868,-0.5868,0,-0.6008,-0.5992,-0.5979,-0.5964,-0.5954,-0.5936,-0.5932,-0.5922,-0.5923,-0.5918,-0.5898,-0.5887,-0.587,-0.5864,-0.5863,-0.584,-0.5843,-0.5847,-0.5856,-0.5838,-0.5831,-0.5828,-0.5867,-0.5867,-0.5867,-0.5867,0,0,-0.5968,-0.5956,-0.5951,-0.5946,-0.5934,-0.5922,-0.5906,-0.5892,-0.5885,-0.5873,-0.586,-0.5838,-0.5843,-0.5834,-0.5832,-0.5822,-0.5805,-0.5827,-0.5827,-0.5825,-0.5782,-0.578,-0.5776,-0.5806,-0.5805,-0.5805,-0.5784,0,-0.594,-0.5912,-0.5912,-0.5886,-0.5873,-0.5878,-0.5864,-0.5856,-0.5852,-0.5841,-0.5836,-0.5822,-0.5828,-0.5823,-0.5814,-0.5809,-0.5796,-0.581,-0.5795,-0.5794,-0.5799,-0.5772,-0.5769,-0.575,-0.5781,-0.578,-0.578,0,-0.5901,-0.5892,-0.5866,-0.5859,-0.5854,-0.5841,-0.5831,-0.5819,-0.5811,-0.5809,-0.5801,-0.5802,-0.5787,-0.5797,-0.5777,-0.5787,-0.5781,-0.5778,-0.5777,-0.5775,-0.5786,-0.5772,-0.5743,-0.5741,-0.5775,-0.5776,-0.5776,0,-0.5878,-0.5858,-0.5841,-0.5837,-0.5828,-0.582,-0.5816,-0.5808,-0.5801,-0.5791,-0.5787,-0.5775,-0.5769,-0.5761,-0.5759,-0.5766,-0.574,-0.5749,-0.5739,-0.5739,-0.5733,-0.5733,-0.5704,-0.5728,-0.5728,-0.5728,-0.5728,0,-0.5847,-0.5831,-0.5832,-0.5821,-0.5805,-0.5805,-0.5789,-0.5785,-0.578,-0.5769,-0.5772,-0.5762,-0.576,-0.575,-0.5749,-0.5734,-0.5731,-0.573,-0.5729,-0.573,-0.573,-0.5726,-0.5727,-0.5727,-0.5727,-0.5727,-0.5728,0,-0.5818,-0.5817,-0.5799,-0.5794,-0.5793,-0.5781,-0.5776,-0.5767,-0.5765,-0.5753,-0.5749,-0.5746,-0.5735,-0.5733,-0.5719,-0.5718,-0.5702,-0.5702,-0.5705,-0.5705,-0.5696,-0.5698,-0.5664,-0.566,-0.5685,-0.5685,-0.5685,0,-0.5798,-0.5787,-0.5782,-0.5776,-0.5772,-0.5762,-0.5756,-0.5757,-0.575,-0.5742,-0.5734,-0.5724,-0.5716,-0.5698,-0.5695,-0.5685,-0.5686,-0.5675,-0.5684,-0.5686,-0.5688,-0.5689,-0.5689,-0.5673,-0.5673,-0.5673,-0.5673,0,-0.5764,-0.5766,-0.5757,-0.575,-0.5743,-0.5736,-0.573,-0.5725,-0.5726,-0.5718,-0.5708,-0.5702,-0.569,-0.5681,-0.5672,-0.5668,-0.5671,-0.567,-0.5668,-0.5668,-0.5671,-0.5671,-0.5701,-0.567,-0.5671,-0.5671,-0.5671,-0.5671,-0.5741,-0.5732,-0.5728,-0.572,-0.5716,-0.5711,-0.5704,-0.5702,-0.5694,-0.5685,-0.5686,-0.5676,-0.5671,-0.566,-0.5655,-0.5648,-0.5651,-0.5647,-0.5646,-0.5645,-0.5645,-0.5672,-0.5646,-0.5646,-0.5646,-0.5646,-0.5646,0,-0.5709,-0.5708,-0.57,-0.5693,-0.5687,-0.5692,-0.5686,-0.5681,-0.5672,-0.5667,-0.5661,-0.5651,-0.5642,-0.5639,-0.5632,-0.5626,-0.5627,-0.5624,-0.5625,-0.5624,-0.5642,-0.5645,-0.5623,-0.5623,-0.5623,-0.5623,-0.5623,-0.5623,-0.5692,-0.5679,-0.568,-0.5666,-0.5665,-0.5656,-0.5653,-0.5649,-0.5646,-0.5635,-0.5629,-0.5628,-0.5625,-0.5617,-0.561,-0.561,-0.5607,-0.5604,-0.5604,-0.562,-0.5622,-0.5625,-0.5628,-0.5603,-0.5603,-0.5587,-0.5587,-0.5587]}]]